{"data":{"norad_id":58179,"epoch":"2026-09-19T00:41:59.511264Z","epoch_age_seconds":267514,"freshness":"STALE","line1":"1 58179U 23167E   26262.02916101  .00000163  00000+0  15448-4 0  9992","line2":"2 58179  43.0038 131.5433 0001317 277.0271  83.0431 15.27577618160553","mean_motion":15.27577618,"eccentricity":0.0001317,"inclination_deg":43.0038,"raan_deg":131.5433,"arg_perigee_deg":277.0271,"mean_anomaly_deg":83.0431,"bstar":1.5448e-5,"rev_number":16055,"period_min":94.266895706769,"perigee_km":482.15260946563,"apogee_km":483.95984776205,"semimajor_km":6861.1932286138,"source":"CELESTRAK","updated_at":"2026-09-21T09:00:33.826655Z"}}